Theta_e
331 323 326 324 324 321 315 314 299 303 302 297 299 299 298 304 305 303 304 306 305 309 310 310 312 318 315 312 317 323 327 323 324 317 317 336 354 354 356 355 355 355 355 354 355 357 360 359 359 360 360 360 360 360 360 360 360 360 359 359 359 358 358 358 358 357 357 356 355 355 354 353 353 353 353 353 353 353 353 352 352 351 351 350 350 351 350 350 350 350 350 350 350 350 350 350 350
323 324 325 324 321 316 309 311 303 300 299 297 298 301 301 304 303 302 304 305 306 308 311 315 324 320 322 323 323 324 325 335 336 335 340 342 348 352 356 355 354 352 352 354 354 354 356 360 358 358 359 360 359 359 359 359 359 359 359 358 358 358 357 357 357 357 356 356 355 355 353 352 353 352 352 352 352 353 352 351 351 351 350 350 350 350 350 350 350 351 351 351 351 351 350 350 349
322 323 320 321 318 315 313 309 298 299 296 294 298 300 304 302 302 304 305 306 309 311 315 319 323 324 324 325 322 322 320 336 339 342 342 349 346 350 355 353 353 352 352 355 353 353 354 358 357 358 358 359 358 359 358 358 358 358 358 358 357 357 356 356 356 356 356 355 355 354 353 352 351 352 351 351 351 351 352 351 350 351 350 349 350 350 351 351 352 352 352 352 351 351 350 350 349
322 323 319 317 309 314 305 303 300 299 296 298 298 302 303 303 304 305 307 310 312 317 320 321 320 329 324 318 323 330 328 330 339 340 339 344 348 354 355 353 356 353 353 353 356 353 354 357 358 358 358 357 357 357 357 357 358 358 357 357 357 356 356 355 355 355 355 355 354 354 353 352 351 351 350 350 351 351 352 351 350 350 350 350 350 351 352 353 353 352 352 352 351 351 351 350 349
320 321 320 316 311 304 305 302 301 301 296 299 298 302 303 304 304 305 308 313 316 318 321 323 323 332 333 329 330 323 328 335 340 342 342 347 355 354 355 356 354 352 352 354 353 354 357 357 356 357 357 356 356 356 356 356 356 357 356 356 356 356 356 355 354 354 354 354 354 353 353 352 351 350 351 350 350 351 353 352 352 350 350 350 351 352 352 352 352 352 352 351 351 351 351 350 349
319 318 318 316 309 313 307 300 299 298 302 303 301 302 304 306 305 306 311 317 320 323 323 322 319 323 324 330 334 330 336 328 339 340 342 340 346 356 357 357 355 352 351 355 348 346 357 350 349 350 354 354 353 353 354 354 355 355 356 356 355 355 354 354 354 353 353 352 352 353 353 352 351 351 352 352 352 352 351 352 353 351 350 351 352 351 351 352 352 351 351 351 351 351 350 350 349
315 314 313 312 310 310 301 300 299 300 301 304 303 303 304 305 306 308 314 318 322 322 324 322 324 326 324 330 335 338 341 342 341 340 347 348 346 345 344 345 349 345 342 344 342 345 344 341 341 340 340 342 343 345 347 348 348 348 348 354 354 354 353 353 353 352 352 351 352 352 353 353 353 353 353 353 353 352 351 352 351 352 352 352 351 351 351 351 351 351 351 351 351 351 350 349 349
319 312 310 305 303 304 301 300 300 302 301 304 304 304 305 306 307 309 314 316 316 316 322 324 324 322 321 331 323 337 342 344 344 348 345 342 343 344 340 339 336 337 341 341 344 344 347 342 342 342 343 344 344 343 341 341 343 345 344 345 347 352 352 352 352 351 351 352 352 353 354 354 353 353 352 353 353 352 351 351 351 353 352 353 352 351 351 350 351 351 351 351 351 350 350 350 349
315 312 312 306 301 304 300 299 299 302 302 304 304 306 307 307 308 312 314 319 320 321 320 322 319 315 325 326 327 336 340 344 347 348 349 350 347 350 345 340 342 342 343 342 341 342 343 342 341 343 343 343 344 344 343 343 342 342 342 343 345 349 351 351 351 352 352 353 353 354 354 354 352 352 352 353 353 353 353 352 352 352 352 352 353 353 352 351 350 351 351 351 351 350 350 350 350
311 311 303 305 304 298 299 299 299 300 301 304 305 306 308 309 312 315 317 317 319 320 322 323 322 319 324 321 328 332 338 343 345 346 347 349 347 349 349 348 343 346 345 344 343 342 343 346 344 343 342 342 343 343 343 343 342 342 342 341 345 349 350 352 353 353 353 354 355 354 352 352 352 352 352 353 353 353 353 352 352 352 351 351 352 353 351 351 352 352 351 352 351 351 351 351 350
306 310 311 302 300 298 297 298 299 301 302 305 308 311 313 318 316 316 318 318 320 318 323 322 316 322 324 321 329 339 342 343 342 340 347 348 346 345 346 347 345 348 345 343 342 342 344 344 346 344 344 343 343 344 343 342 341 342 342 343 346 350 351 352 355 354 354 354 354 353 352 352 353 353 353 352 353 353 352 352 352 352 351 351 351 351 352 352 352 352 352 352 352 351 350 351 351
304 305 305 300 299 299 299 298 299 301 304 307 308 312 315 318 318 314 315 314 318 319 322 326 321 322 319 321 328 338 341 340 340 343 346 348 345 344 343 342 345 347 347 347 346 345 344 342 343 342 343 345 344 345 345 343 342 343 343 344 347 351 351 353 354 355 354 354 353 353 352 352 353 353 353 352 352 352 352 351 351 352 351 351 352 353 353 352 351 352 352 352 352 352 351 352 351
306 306 303 301 300 300 300 299 300 302 303 305 309 312 315 316 315 315 315 316 316 316 322 327 327 325 319 322 333 337 336 338 341 344 345 344 345 346 346 346 345 345 347 348 346 344 344 344 343 344 344 345 345 345 345 344 343 342 344 346 349 351 351 353 354 354 354 354 353 353 353 353 353 353 352 352 352 353 352 352 352 351 352 352 352 353 353 352 352 352 353 352 352 352 352 351 351
307 307 305 299 303 300 300 299 301 299 300 307 313 316 318 315 317 318 317 317 320 319 324 330 327 323 320 326 326 330 333 338 340 344 345 344 346 346 346 347 346 345 345 345 344 344 343 342 343 343 344 346 347 346 346 347 346 345 346 348 349 350 350 351 352 351 353 353 353 353 353 352 352 352 351 352 351 352 352 352 352 352 352 352 352 353 353 352 352 353 353 352 351 351 351 351 351
307 309 305 301 300 300 301 298 299 299 299 307 313 315 316 318 320 322 321 316 321 327 327 331 330 321 314 317 321 327 332 337 339 341 344 344 344 345 348 347 348 347 345 344 345 345 344 344 344 343 343 344 346 347 348 348 349 348 348 351 349 347 350 350 351 351 348 352 352 352 352 352 351 351 351 351 352 352 352 352 352 352 352 352 353 353 353 352 352 352 352 352 351 351 351 351 350
309 308 305 300 298 298 299 300 301 300 300 306 313 313 314 320 324 320 324 325 323 329 331 324 333 326 327 326 327 331 334 337 339 341 342 341 343 343 344 346 346 346 344 343 342 343 344 344 345 344 344 344 345 347 346 347 347 349 350 350 350 348 349 350 350 349 350 349 351 353 352 351 350 350 350 350 352 352 352 351 352 352 353 353 353 353 353 353 352 353 352 352 352 352 351 350 350
310 309 301 301 297 299 299 300 301 297 303 305 307 308 309 313 323 325 328 325 321 323 326 329 327 332 327 328 331 334 337 339 341 339 339 339 339 338 338 341 343 343 344 343 342 341 341 341 343 343 344 345 343 343 345 345 343 348 350 350 350 350 350 349 350 349 349 351 351 353 352 350 351 353 351 350 352 351 351 352 352 352 353 353 353 353 353 353 353 353 353 352 352 352 351 350 350
308 303 301 299 300 299 302 301 303 304 303 306 310 311 309 310 317 319 323 321 322 322 324 327 329 329 330 331 334 335 338 339 338 337 336 335 335 333 333 336 337 338 341 341 342 341 339 340 342 341 342 343 345 344 343 343 344 349 350 349 351 349 347 348 352 353 350 354 351 352 352 352 349 350 351 351 351 352 352 352 353 353 354 353 353 352 353 353 353 353 352 352 352 352 350 351 351
305 303 303 298 301 302 305 304 305 304 304 307 307 311 311 311 313 317 313 312 314 316 320 322 322 325 327 329 333 334 336 337 337 336 334 333 332 332 332 333 334 335 336 339 340 340 339 339 340 340 341 342 344 344 342 343 344 348 350 350 350 346 340 347 350 350 350 351 350 351 348 349 348 346 352 350 351 350 351 353 353 353 353 353 353 352 352 352 353 353 352 352 351 351 352 352 351
306 304 300 301 304 304 306 306 305 306 306 304 307 308 308 309 314 319 312 311 312 312 315 317 317 318 321 325 330 332 334 334 335 333 332 332 332 332 332 332 332 333 335 336 338 339 339 338 339 340 340 341 342 343 342 342 343 342 346 349 351 351 343 344 348 349 348 348 353 352 352 349 348 350 350 350 351 351 352 352 353 353 352 352 352 353 352 352 351 351 352 352 352 349 350 350 349
305 304 301 302 305 303 305 306 306 306 307 305 305 307 308 313 315 316 312 311 312 317 321 317 317 318 319 323 328 329 330 331 331 331 331 331 331 332 332 332 332 333 335 337 337 338 339 340 340 340 341 341 339 340 341 341 342 343 343 344 347 350 350 348 344 348 347 348 344 345 352 348 347 349 353 353 350 350 348 349 351 350 349 349 350 347 345 347 346 344 349 349 347 347 349 350 350
306 303 305 305 306 304 305 306 306 306 306 306 305 306 309 317 317 314 312 305 309 317 321 321 321 323 322 322 323 327 328 328 328 329 329 329 329 329 331 332 334 335 335 334 335 335 337 339 340 340 341 341 340 338 339 341 340 342 343 343 344 346 347 349 347 344 347 347 343 342 347 350 348 345 351 352 349 348 345 345 346 346 344 344 344 345 343 341 342 340 339 342 342 347 348 351 352
301 304 305 306 306 305 306 306 305 306 306 305 306 310 313 312 315 319 319 317 320 323 323 321 320 321 324 327 326 327 328 327 328 328 329 329 329 330 330 331 331 331 332 333 335 335 337 339 340 340 340 340 341 339 338 339 340 341 341 342 341 344 346 348 345 345 346 345 346 342 345 346 345 344 348 348 346 346 343 343 340 345 345 343 344 343 343 342 340 337 338 341 340 341 344 346 347
305 301 305 305 305 306 306 305 306 306 306 305 310 312 310 310 309 319 319 321 322 322 322 321 320 320 321 323 326 326 326 327 328 329 330 329 330 330 330 329 330 331 332 333 334 335 336 338 340 340 340 341 342 340 338 337 338 340 341 341 342 343 345 348 346 344 344 345 349 344 343 346 345 344 346 346 350 347 345 345 348 346 342 340 342 341 339 337 336 337 340 341 342 340 340 345 345
304 302 305 305 306 306 306 307 306 306 306 309 311 309 308 311 315 318 317 320 320 320 320 320 320 319 319 319 320 324 325 326 327 329 330 330 331 331 331 330 330 330 330 332 333 334 336 338 339 338 340 340 340 341 338 339 339 339 340 340 341 342 342 346 350 348 345 346 348 347 345 340 346 348 344 344 350 348 348 349 346 342 341 339 341 338 338 338 339 340 344 345 345 344 340 344 343
306 305 306 306 307 307 307 307 307 307 308 310 309 310 315 317 320 316 318 319 319 319 318 318 318 317 317 318 318 320 324 326 327 327 328 329 329 328 328 328 329 329 330 331 332 333 335 337 337 338 339 339 340 340 340 339 339 339 339 339 340 342 341 341 344 342 344 344 342 348 348 342 343 349 346 345 348 346 350 351 346 343 339 339 340 339 339 338 340 342 344 345 343 344 341 343 342
308 307 307 306 307 307 307 306 308 310 310 311 309 312 313 316 313 309 319 318 318 317 317 317 317 316 317 317 318 319 320 323 325 327 326 327 326 325 326 327 327 328 330 330 331 332 334 335 336 338 337 339 339 339 340 340 340 338 339 340 340 340 339 338 340 345 345 344 346 347 347 347 345 346 348 346 346 348 350 348 347 344 339 339 341 339 341 341 343 345 346 343 343 342 343 342 342
308 308 307 307 307 308 307 307 307 310 308 312 310 309 311 311 312 311 317 318 317 315 316 316 315 316 317 317 317 318 319 321 322 324 324 324 322 323 325 326 328 328 328 329 329 332 332 334 336 337 338 338 338 339 340 340 340 339 339 340 340 340 339 340 336 339 346 342 340 341 346 345 343 351 352 348 346 344 345 347 343 342 339 338 340 339 340 344 344 344 345 346 346 346 345 343 345
308 307 303 304 306 306 307 305 307 308 307 312 311 307 305 306 311 316 317 317 315 315 314 314 315 315 316 316 317 318 319 321 321 322 323 323 324 323 323 326 326 325 326 328 327 329 330 332 333 335 337 336 338 338 339 340 340 340 339 339 339 339 339 338 334 334 339 345 340 339 343 346 345 350 354 352 350 347 346 343 341 341 340 340 342 342 343 347 345 345 347 347 347 346 345 344 343
308 306 305 302 303 303 307 308 307 306 308 311 309 297 301 310 314 315 316 315 314 313 312 314 314 315 315 315 316 318 319 319 319 320 322 322 322 322 322 323 325 322 321 323 326 327 327 329 332 333 335 335 336 337 337 338 340 343 343 341 341 339 340 342 339 338 339 340 340 336 339 346 349 350 352 355 350 345 344 341 342 340 339 343 345 347 344 344 343 343 342 343 344 344 343 344 344
304 304 304 301 299 299 307 307 306 304 308 308 308 297 304 310 313 314 315 314 312 311 312 313 314 314 315 314 314 315 316 318 317 320 320 322 322 321 322 323 323 323 322 323 324 325 326 326 327 328 330 333 335 336 336 338 340 342 342 342 341 339 340 343 342 341 338 339 341 342 343 344 343 348 351 352 353 349 343 345 345 339 341 344 340 343 343 345 345 343 341 340 342 342 347 343 344
305 299 297 301 298 300 305 308 306 303 305 308 305 298 301 309 312 314 315 314 313 311 312 312 313 313 314 314 314 314 315 317 317 318 319 319 322 321 321 321 321 322 322 322 323 324 324 325 326 324 327 328 332 333 336 337 338 339 339 340 343 340 338 340 340 339 336 340 343 343 345 344 344 347 349 351 353 345 347 345 341 340 342 340 340 344 346 344 345 343 343 344 343 338 344 345 346
303 299 297 297 299 300 301 304 307 308 305 306 304 299 306 308 313 314 314 313 313 312 311 312 313 313 314 313 313 314 314 316 316 318 321 320 321 322 320 320 320 321 321 322 322 322 322 324 324 324 324 325 328 332 335 337 337 338 338 340 340 340 338 339 338 338 339 339 341 341 341 343 345 345 347 348 350 351 348 341 342 343 342 340 342 344 343 343 345 342 345 344 345 339 343 344 344
299 301 298 300 298 299 298 303 306 307 305 302 305 302 304 310 312 313 313 313 312 311 311 312 312 314 314 313 313 313 314 315 315 317 319 320 320 321 320 319 320 321 322 322 322 322 321 322 323 323 324 325 326 329 334 335 336 337 337 337 340 339 338 338 339 339 338 339 340 339 343 342 343 344 347 348 349 351 345 341 342 343 340 342 343 342 342 344 345 346 344 345 343 341 345 344 344
297 297 297 297 299 299 298 298 303 305 305 302 303 302 304 310 312 312 311 313 312 312 311 312 313 314 313 313 312 312 313 314 315 317 319 320 320 319 319 320 320 320 321 321 320 320 320 320 321 323 323 323 324 326 329 334 334 336 336 337 337 339 340 338 338 336 336 337 339 340 341 344 342 343 345 348 350 350 344 348 339 347 340 342 344 341 343 344 345 345 346 347 347 344 346 344 345
298 299 298 298 297 298 298 301 305 304 302 301 301 300 302 309 310 311 311 312 312 312 313 312 312 313 313 313 312 312 312 314 316 318 318 318 318 318 318 319 319 319 320 319 320 319 319 320 321 322 322 323 323 324 325 326 330 331 332 335 335 335 339 337 336 336 335 338 341 338 338 342 342 343 343 345 348 348 348 348 349 344 343 344 342 340 340 341 343 345 344 345 347 346 347 344 348
300 299 299 299 298 299 300 301 304 306 302 300 301 301 302 308 309 310 311 312 313 312 310 310 311 311 312 312 313 313 314 313 316 318 317 317 318 318 319 318 318 319 319 319 319 318 319 317 319 319 321 323 322 321 322 324 326 329 332 333 332 334 335 336 334 335 337 338 335 339 340 341 339 342 343 344 347 347 347 344 348 345 344 341 343 342 341 341 345 345 344 347 347 344 344 346 346
300 300 299 298 299 297 301 301 304 306 301 299 302 301 302 307 310 311 312 311 310 310 310 310 310 311 312 312 312 312 314 314 316 317 317 317 317 317 317 317 318 317 318 318 318 318 318 319 318 319 320 321 321 322 320 322 327 328 329 331 332 332 334 336 333 334 337 338 340 339 341 339 342 341 344 345 347 349 343 347 349 341 343 343 344 345 343 342 345 345 346 345 344 344 346 346 346
300 299 299 297 299 301 302 303 304 306 302 300 301 300 303 307 310 311 311 310 312 312 312 311 311 311 311 312 312 312 313 313 315 315 316 316 316 316 316 317 317 318 317 317 319 318 318 318 318 319 320 320 320 322 321 321 325 328 331 331 332 336 337 336 336 336 339 339 335 337 338 338 337 338 343 344 345 347 348 347 348 347 346 342 344 345 345 347 347 344 345 340 339 346 346 350 348
299 299 298 296 300 296 295 301 303 304 302 300 301 299 303 307 309 310 312 311 312 314 313 313 313 311 310 311 312 311 311 311 314 314 314 315 315 315 316 315 316 317 316 316 317 317 317 317 318 318 319 321 320 321 322 323 325 327 332 333 334 334 334 334 333 334 334 334 335 338 338 342 340 341 342 344 344 345 347 348 348 347 346 345 341 344 341 337 343 344 342 341 343 341 343 346 348
300 298 298 297 297 299 297 298 302 303 303 303 301 299 301 303 304 306 310 312 312 313 313 313 313 312 313 313 313 313 311 312 313 313 314 314 314 314 314 315 316 315 315 316 318 317 316 317 318 319 318 319 321 321 322 323 323 325 328 331 333 333 335 333 333 331 332 331 331 332 334 335 339 343 343 344 344 346 348 349 348 348 346 347 346 343 342 338 340 342 341 341 342 341 340 344 347
298 299 298 298 298 297 298 299 298 298 298 301 300 291 291 301 302 304 308 309 310 312 311 311 313 312 312 311 312 313 313 316 315 313 313 314 314 314 314 314 314 314 314 317 318 317 317 317 318 318 318 319 320 321 322 322 322 321 323 324 323 326 326 328 328 328 326 327 327 331 334 337 337 339 341 342 342 343 347 350 345 342 346 348 344 341 343 339 339 339 339 342 340 342 342 342 344
296 297 300 299 299 298 298 298 298 293 291 299 302 291 287 300 299 302 306 307 305 308 308 310 311 311 312 311 311 311 312 313 314 314 314 313 313 313 313 313 313 313 314 316 317 319 319 317 318 318 318 318 320 321 321 321 320 320 322 323 323 322 323 328 331 329 330 330 332 331 332 333 335 339 340 341 341 340 340 342 341 341 344 343 345 346 342 341 341 339 341 342 340 341 344 341 343
295 298 301 300 298 297 297 298 298 296 299 300 300 298 290 289 298 303 305 305 306 306 306 304 308 311 312 313 311 311 312 314 312 312 313 313 313 313 312 313 313 314 314 316 317 317 318 318 318 317 318 318 319 321 321 322 320 320 321 322 323 322 323 324 328 331 333 329 329 332 332 334 335 336 338 339 339 340 340 338 338 339 337 343 346 346 346 345 342 341 342 343 343 341 343 342 343
297 300 301 299 299 299 299 298 297 298 296 291 296 299 291 290 298 303 304 301 302 303 304 306 306 309 312 313 311 311 311 312 312 311 312 312 313 312 313 313 314 315 316 315 315 316 317 318 318 318 317 317 318 320 320 320 321 320 320 321 321 323 323 324 329 332 331 330 326 330 333 334 334 334 336 338 339 340 341 340 340 340 336 336 341 341 346 344 344 343 345 344 343 341 343 344 344
301 302 302 301 301 299 298 297 296 297 293 287 293 296 288 289 298 299 302 300 300 303 305 305 307 308 311 312 312 312 312 312 311 312 313 313 312 313 314 314 314 315 316 316 315 315 316 317 317 316 316 315 317 319 319 320 321 321 319 320 321 321 323 324 327 329 330 328 328 326 334 332 333 335 337 337 338 338 339 340 341 339 338 338 341 345 346 349 349 347 347 347 349 346 345 342 340
303 302 300 300 299 299 299 299 297 294 286 291 295 295 291 285 294 298 298 299 302 304 306 307 308 310 311 312 311 312 311 310 310 312 312 312 313 313 313 313 313 313 315 315 315 314 316 316 316 315 315 315 315 317 318 318 319 320 319 320 320 320 322 322 323 324 327 326 325 324 330 332 336 337 337 338 338 337 338 340 341 340 338 339 342 346 347 345 348 349 349 348 346 346 343 343 344
301 301 298 297 297 298 297 296 297 286 286 293 297 295 296 285 291 300 303 304 305 305 304 305 307 309 310 311 311 311 309 309 310 310 309 311 312 312 313 312 312 312 313 314 314 315 315 314 315 314 314 314 314 315 317 317 316 318 319 320 319 320 322 321 321 321 322 324 328 330 332 333 335 335 336 336 336 335 337 339 341 340 337 336 337 344 344 345 345 349 348 347 347 348 348 345 344
301 299 298 290 288 289 285 290 285 287 285 293 296 296 291 291 296 301 302 303 304 306 307 306 307 309 311 310 310 309 308 308 309 309 310 310 310 311 311 311 311 311 311 313 314 315 314 314 314 313 313 313 313 314 315 316 317 317 318 318 320 321 320 321 321 320 321 321 323 326 325 326 330 333 332 332 335 335 336 337 337 336 334 338 338 344 348 348 348 347 347 346 347 347 347 348 343
298 296 294 289 285 284 280 284 288 287 292 296 295 298 290 294 299 302 302 305 306 307 307 307 308 310 309 307 308 307 308 308 308 308 309 310 311 310 311 310 310 311 312 313 314 314 313 313 313 312 311 313 313 313 314 314 315 317 317 318 319 320 320 320 320 320 320 321 323 324 327 328 326 329 330 330 335 336 337 337 336 337 338 338 339 339 345 347 347 344 348 348 346 348 348 348 348
297 297 296 292 290 284 279 284 282 284 286 292 297 291 287 290 294 302 304 305 306 306 306 309 309 309 309 308 307 307 307 307 307 307 308 310 311 310 310 310 310 311 312 312 313 313 312 311 311 311 311 312 312 313 314 314 314 315 316 317 318 319 319 318 319 320 321 321 322 323 324 328 328 328 327 330 331 333 334 335 334 335 337 337 338 337 343 345 346 346 347 349 348 349 348 348 347
299 299 298 295 291 295 286 290 287 288 288 288 291 289 295 295 302 305 305 305 304 304 306 307 307 307 306 305 303 303 304 305 306 307 309 311 310 310 310 310 310 311 312 312 313 312 311 310 311 311 311 311 312 313 313 314 314 314 315 316 317 317 318 319 319 321 320 321 322 322 323 324 325 325 327 328 329 332 333 335 335 336 336 339 337 335 339 341 342 343 343 347 348 347 347 348 348
296 297 292 294 298 295 290 289 294 292 288 285 292 292 296 301 301 303 304 303 302 303 304 304 304 304 305 304 304 304 305 306 307 307 308 310 310 310 310 310 310 311 311 312 311 311 310 310 310 310 310 312 312 313 313 314 314 314 314 315 316 317 317 317 317 320 320 321 322 322 324 323 324 324 325 326 327 328 330 333 334 336 335 336 336 335 339 340 340 341 343 344 345 347 347 345 347
299 292 294 298 300 299 292 285 287 286 283 285 290 287 289 291 287 301 302 302 301 301 302 303 304 304 304 305 304 303 304 305 307 309 309 309 309 309 309 309 310 310 311 311 311 311 311 311 310 310 310 310 311 311 312 312 312 313 313 314 315 315 316 316 317 318 320 320 320 321 322 323 321 323 324 324 325 325 326 327 330 333 333 333 335 333 338 341 342 341 342 342 343 346 347 347 347
298 295 300 294 287 287 292 286 280 281 280 283 287 289 291 292 291 297 299 300 302 301 302 303 303 303 303 303 303 304 305 306 307 307 308 308 309 308 309 309 309 310 311 311 310 310 310 311 311 311 310 310 311 312 312 312 313 312 313 313 314 314 315 316 316 317 318 319 318 319 320 319 320 321 323 323 322 322 323 326 327 329 332 332 334 335 339 341 341 339 337 339 342 343 343 344 346
302 301 297 299 296 287 286 288 288 287 282 283 284 288 286 295 295 298 300 301 302 302 302 301 302 302 302 303 304 305 306 307 307 307 307 308 308 308 308 309 308 309 310 310 311 310 309 310 310 311 311 311 311 311 312 312 313 313 312 313 314 314 314 315 316 316 317 317 317 318 319 319 319 320 321 323 322 321 321 322 324 326 327 330 331 333 335 338 340 340 339 339 341 341 340 341 343
296 297 295 295 294 296 293 294 288 286 283 283 282 282 288 296 299 300 300 302 303 302 302 303 302 303 304 305 305 305 306 307 307 307 307 308 308 309 309 309 309 309 310 310 310 309 309 309 309 310 310 310 310 311 311 312 312 312 312 312 314 314 314 315 316 315 317 317 317 318 319 320 320 320 320 320 321 321 320 321 320 322 324 326 329 331 333 335 337 337 338 339 340 339 338 338 340
298 296 293 295 291 288 285 284 293 291 287 283 283 282 291 298 302 301 302 303 303 304 303 304 303 303 304 305 306 306 306 308 308 308 308 307 308 308 309 309 309 308 308 309 308 308 308 309 308 310 310 310 310 310 311 311 312 312 312 312 313 314 314 315 315 316 316 317 317 318 318 318 320 320 320 319 320 321 320 320 320 319 321 323 324 326 329 331 332 335 336 337 340 339 338 338 339
Wind_Speed
7 3 2 3 4 4 6 7 8 6 5 7 6 6 6 1 2 3 4 3 6 7 4 3 3 3 5 4 4 9 12 8 6 5 3 2 3 5 6 9 9 10 10 10 11 12 12 11 9 9 11 13 11 11 10 12 11 11 13 14 14 15 15 14 14 15 15 15 15 16 17 15 14 14 14 15 15 15 15 15 16 15 15 15 15 14 14 14 14 14 14 14 14 14 13 14 13
2 2 3 4 5 6 6 4 7 7 7 6 3 1 8 6 5 2 1 3 6 6 5 1 4 5 1 4 5 8 12 11 9 6 6 2 7 5 7 7 8 9 8 8 9 11 11 12 9 10 10 12 13 12 11 11 11 13 13 14 15 14 14 13 13 13 13 13 14 15 16 15 13 13 13 14 14 13 14 15 15 15 14 14 14 14 14 15 15 14 14 14 14 14 14 13 13
2 3 5 5 5 6 2 5 7 6 7 8 6 3 4 5 3 2 3 6 6 3 4 3 3 2 6 3 5 4 8 8 7 8 5 5 5 3 6 7 8 8 8 7 8 9 10 11 9 10 11 12 10 10 11 10 10 11 12 13 14 14 13 12 12 11 11 12 12 13 13 14 14 13 12 13 14 13 14 15 16 15 15 15 14 15 15 15 14 14 14 13 13 13 13 13 12
4 3 4 7 6 5 6 6 7 5 8 0 6 5 2 1 3 2 4 5 3 6 6 8 4 5 1 6 11 10 8 6 10 7 3 1 3 5 6 7 8 7 7 6 8 7 8 14 11 10 10 11 11 9 10 10 9 10 12 13 14 14 13 12 12 11 10 11 11 12 13 14 14 13 12 13 14 13 13 14 16 16 15 15 15 15 15 15 14 14 14 13 13 13 12 12 11
4 3 4 6 5 7 6 4 4 3 6 4 3 7 4 2 1 2 4 2 7 5 4 7 6 6 13 7 2 3 4 1 10 11 5 4 5 1 5 5 7 6 6 7 6 6 11 18 14 12 10 10 10 8 8 9 10 10 11 12 12 12 12 12 11 10 10 10 10 11 13 13 13 12 12 12 14 14 13 13 14 16 16 16 15 15 15 15 14 14 13 13 12 12 12 11 11
4 4 4 5 4 5 4 5 6 7 7 4 2 7 2 3 1 2 3 5 6 4 6 7 9 8 6 8 7 5 8 2 7 7 8 6 9 5 4 4 1 5 8 10 17 14 13 23 19 16 13 10 9 9 7 6 7 7 8 9 12 11 12 12 11 11 11 11 10 10 11 12 11 11 11 11 13 14 14 14 14 14 16 15 15 15 15 14 14 13 13 12 12 12 11 11 10
5 7 5 5 3 5 6 4 4 2 6 4 5 3 2 3 2 3 9 9 6 7 2 8 11 10 10 7 12 9 9 8 3 7 8 7 11 18 17 15 12 19 16 15 13 10 17 25 29 28 27 23 23 20 19 11 8 5 3 6 9 12 12 13 12 12 11 11 11 10 9 10 10 9 9 10 11 13 14 14 14 13 14 15 14 14 14 14 13 13 12 12 11 11 11 9 9
2 6 6 7 5 7 5 2 3 3 6 3 4 3 2 3 3 5 10 9 9 8 8 7 4 9 6 2 7 7 12 10 9 11 13 10 7 10 10 8 6 6 7 8 6 7 13 22 22 18 17 15 18 18 19 24 26 23 13 7 3 7 11 12 11 12 12 11 10 8 7 7 10 10 10 9 11 12 13 14 14 13 13 12 13 13 13 13 12 12 11 10 10 9 9 8 7
5 5 1 6 5 3 5 3 6 2 5 2 3 4 2 1 4 7 7 7 8 7 6 7 11 9 6 11 9 7 10 11 10 13 12 12 13 12 9 7 8 8 10 12 12 11 13 20 19 19 18 15 14 16 14 14 14 15 20 19 11 3 6 10 11 11 10 8 7 6 7 8 10 11 9 10 10 11 11 13 13 14 13 12 12 11 10 11 11 10 9 9 8 8 8 8 8
5 5 8 5 4 7 5 5 4 5 5 4 4 5 3 6 6 7 11 11 8 8 7 4 7 12 7 10 8 7 7 11 11 14 13 14 14 13 14 15 13 13 14 13 12 14 14 20 21 20 18 14 13 13 13 14 14 12 7 4 11 9 4 2 7 8 8 7 7 8 9 8 11 12 10 9 10 10 10 12 13 13 13 13 12 10 11 10 10 9 8 8 8 7 8 8 8
6 4 3 5 6 5 5 6 6 6 7 6 8 6 5 4 8 10 9 9 6 9 7 10 11 13 8 8 8 5 10 13 13 12 12 15 16 15 11 15 14 13 14 14 12 11 10 11 16 15 17 16 17 17 17 15 11 11 10 7 1 3 4 5 1 6 6 7 8 9 10 9 9 10 10 9 9 10 11 12 12 13 13 13 12 11 10 10 9 9 8 7 8 8 8 9 10
5 5 6 6 5 4 6 7 8 8 8 8 9 7 3 6 8 10 11 11 9 9 9 5 8 11 6 8 5 7 10 14 12 10 12 13 13 12 12 12 14 14 14 13 11 10 9 9 8 8 8 11 11 14 19 18 13 9 8 6 4 5 3 4 4 2 6 8 9 10 10 11 10 10 10 9 8 9 10 11 12 12 13 13 12 11 10 9 9 8 8 9 9 9 10 12 13
4 5 6 4 4 5 7 7 8 10 9 8 8 6 2 6 7 8 8 8 7 8 8 9 3 3 7 6 6 8 12 13 11 9 12 11 11 10 12 14 14 13 13 13 14 13 12 10 8 6 6 7 12 11 15 20 16 14 11 6 6 6 2 3 4 3 4 7 8 8 8 9 9 10 9 9 8 9 9 11 11 12 12 12 12 11 11 10 8 8 10 10 10 10 11 13 13
4 3 4 5 1 7 6 8 8 8 8 9 7 6 6 6 6 3 6 8 8 8 6 8 5 10 9 5 4 7 9 10 10 10 9 11 10 11 12 12 14 14 13 13 13 13 12 10 9 8 6 3 4 9 12 14 20 18 15 13 10 6 2 4 4 5 5 6 6 6 7 8 10 10 10 10 10 9 10 11 12 11 12 12 12 11 11 10 9 9 10 10 11 11 12 13 13
1 2 2 7 6 5 6 7 7 8 9 7 5 5 8 8 5 6 8 8 10 6 1 7 8 8 4 8 5 7 7 9 7 9 9 9 11 12 13 12 13 13 12 14 12 12 11 10 8 6 4 2 2 3 3 8 14 17 17 17 15 13 6 3 6 6 6 6 7 8 8 9 10 11 11 11 11 10 10 11 11 11 11 11 11 11 10 11 9 9 10 10 11 12 12 13 12
0 4 5 7 7 7 5 6 6 9 9 8 5 7 10 9 7 5 7 6 8 7 6 6 13 8 11 12 8 7 8 7 6 8 8 10 10 11 12 12 12 12 11 11 12 11 10 9 8 6 2 0 1 1 5 1 8 7 21 22 20 17 13 8 7 7 8 7 9 10 10 11 11 11 11 11 12 12 12 11 13 11 10 11 11 10 10 10 10 9 10 11 11 12 13 12 13
2 5 6 5 8 7 5 6 6 8 10 9 5 3 6 8 8 9 4 5 8 9 12 11 10 9 13 11 9 9 10 9 8 9 9 9 7 8 9 9 8 9 8 12 12 10 10 9 7 5 3 3 2 1 2 3 5 3 7 17 25 22 18 17 13 11 10 11 11 11 11 10 10 9 11 10 12 11 11 11 11 11 10 10 10 10 9 10 10 10 10 11 12 13 13 13 12
5 6 5 6 6 8 5 6 6 9 9 9 7 6 9 9 7 6 6 9 10 10 11 10 12 13 12 10 9 10 11 13 12 13 12 10 9 9 9 9 9 8 7 8 11 11 8 8 7 6 3 3 1 1 1 2 3 5 5 3 9 15 15 13 12 10 10 10 13 12 10 9 9 9 10 12 11 11 11 12 11 10 9 9 9 9 8 9 10 9 10 11 12 13 15 9 10
5 4 4 7 5 9 7 8 6 6 9 9 7 3 7 9 5 3 5 7 8 10 10 10 13 12 12 12 11 11 12 13 14 15 16 16 13 14 11 9 10 9 9 7 8 10 8 7 7 6 5 3 1 1 1 4 3 1 4 5 6 9 12 12 9 13 12 11 11 11 10 9 10 10 9 10 8 11 10 11 11 10 9 9 9 8 8 9 10 10 10 11 11 14 10 6 7
1 3 6 8 9 9 8 7 8 9 8 8 8 7 7 6 3 5 7 8 8 9 8 8 10 11 11 11 11 12 14 15 16 17 16 15 12 11 10 10 8 8 8 8 7 7 8 7 6 5 5 5 2 0 1 3 4 3 1 6 5 6 8 10 12 12 11 11 9 9 9 10 10 9 10 11 11 9 9 10 11 11 9 9 9 8 8 8 10 9 9 9 10 7 5 6 6
4 4 6 9 9 10 8 7 7 5 2 8 7 7 8 5 5 6 9 9 7 8 8 8 10 11 11 12 12 13 15 16 15 15 14 13 12 9 9 9 8 8 8 7 7 8 9 8 6 5 5 4 3 2 2 1 4 5 4 4 7 7 8 9 10 11 11 8 3 10 10 10 10 9 10 9 9 9 9 8 8 9 8 9 11 7 7 8 8 8 8 9 6 8 4 5 5
2 9 9 9 5 9 7 9 5 4 2 7 8 8 9 8 6 5 5 4 6 7 9 10 11 11 12 12 13 13 14 15 15 15 15 14 13 12 10 9 9 7 7 7 7 7 9 7 7 5 3 3 3 2 3 2 2 6 8 6 5 7 8 7 9 10 11 13 10 9 11 10 10 10 10 10 8 8 9 9 10 9 10 9 9 7 7 7 7 7 8 8 5 4 4 4 4
5 6 8 4 6 8 5 8 6 3 5 5 5 8 9 8 8 7 10 12 10 10 10 11 11 12 11 11 11 13 13 14 14 15 15 15 14 14 12 10 9 9 8 8 7 7 8 8 7 6 5 3 3 2 2 3 4 4 6 6 6 8 8 8 9 9 11 11 12 9 9 10 10 10 11 10 10 9 9 10 10 9 9 8 8 7 6 7 6 5 5 4 3 3 5 5 4
2 8 7 6 2 7 4 7 4 3 4 6 7 8 8 11 10 8 13 12 12 10 10 11 10 10 10 12 12 13 14 14 14 13 13 14 14 13 11 11 10 9 9 8 8 8 8 9 8 8 6 5 3 2 2 2 4 6 6 8 9 7 7 8 9 9 9 10 10 8 7 11 10 10 11 11 10 7 8 10 8 9 8 8 8 6 7 7 5 5 4 4 3 4 5 5 5
8 8 4 7 3 6 5 5 5 7 8 8 9 8 7 6 9 9 12 10 10 10 10 10 10 10 11 12 13 13 13 13 13 13 12 11 12 12 12 10 10 9 10 9 8 8 10 9 10 10 9 7 5 3 1 2 3 5 7 7 9 8 8 7 6 6 9 9 10 9 8 7 8 10 11 11 10 8 6 8 8 9 8 8 7 7 7 6 5 4 3 3 4 3 4 5 5
4 8 5 6 6 6 6 6 6 7 6 8 9 9 9 13 14 12 10 10 10 10 10 10 10 11 11 12 13 13 12 13 12 12 11 11 11 13 13 11 10 11 10 9 9 9 10 10 11 11 11 9 7 5 2 2 3 6 6 7 8 7 6 6 7 6 8 10 12 13 11 12 8 9 11 10 10 11 11 9 8 8 8 7 7 7 6 6 5 4 4 4 5 5 5 5 5
4 7 5 5 7 7 5 6 7 6 6 9 9 11 12 10 5 7 8 9 10 10 10 10 10 11 11 11 11 11 13 13 13 11 12 11 12 13 11 11 11 10 10 11 10 10 10 11 10 10 10 9 7 6 4 2 3 5 6 7 6 7 6 6 7 8 10 11 9 10 10 7 8 13 9 10 9 7 7 8 6 6 6 6 7 7 6 6 4 3 2 2 4 6 5 6 5
6 7 7 7 7 6 6 6 7 7 6 5 9 10 10 8 6 9 10 10 10 11 11 11 10 11 10 11 12 11 11 11 10 12 14 13 11 11 11 9 9 9 11 12 11 10 11 12 11 11 11 10 9 8 5 5 3 3 6 7 6 8 6 3 4 7 9 10 8 6 7 9 11 13 8 9 10 10 8 8 9 8 6 6 7 7 7 5 5 3 2 2 4 6 6 6 5
6 6 8 7 8 7 5 7 7 5 6 7 9 11 9 7 8 13 12 10 10 10 11 11 11 11 11 11 11 11 11 11 11 11 12 11 11 10 12 10 9 9 9 10 11 11 12 11 11 11 12 11 10 10 8 6 5 4 4 6 7 7 8 6 9 8 8 9 8 8 8 11 10 11 7 9 10 10 9 11 11 9 7 7 6 7 7 5 4 4 3 4 5 6 7 6 5
6 5 1 7 7 7 6 4 5 7 7 7 10 6 6 8 11 12 11 10 11 11 10 10 9 10 10 10 10 10 10 11 12 12 10 10 10 10 11 10 10 9 8 8 10 11 10 8 8 8 11 12 11 9 9 8 6 4 3 4 5 7 8 8 10 8 6 7 9 11 10 6 7 8 8 8 8 10 11 11 10 9 9 8 6 5 6 6 5 5 5 5 6 7 8 7 6
7 4 6 3 7 6 7 4 7 8 7 7 9 6 5 9 11 12 11 12 11 10 10 10 10 10 9 9 9 10 11 11 12 12 11 10 9 9 10 9 9 9 8 9 10 9 10 9 9 8 11 11 11 10 10 9 7 4 4 3 4 5 6 6 5 5 8 10 9 9 10 9 11 12 9 8 8 8 11 10 8 10 9 8 8 7 6 6 5 5 4 6 6 7 7 8 6
2 8 5 3 7 9 8 5 5 6 11 8 9 7 4 11 12 12 11 11 10 10 10 10 10 10 10 9 9 10 10 10 11 11 11 10 8 8 8 9 9 9 9 9 9 9 10 10 10 11 12 12 11 11 9 9 8 5 3 5 5 6 6 5 5 6 6 8 8 7 10 13 10 10 10 9 8 10 10 10 10 9 9 9 8 7 7 7 6 5 4 4 7 7 8 4 6
6 8 3 2 4 5 5 6 4 1 6 9 9 4 5 9 12 12 11 11 11 10 10 10 11 11 9 9 8 8 9 10 10 10 9 7 7 6 7 8 9 9 9 10 10 9 10 10 10 12 13 13 12 11 10 9 8 8 7 5 5 7 6 5 6 6 8 10 11 9 9 11 10 10 10 10 8 10 8 10 8 8 10 9 8 8 7 7 6 5 5 4 4 8 10 8 7
4 3 4 1 7 1 1 7 3 2 5 6 6 7 5 8 14 13 12 11 11 10 11 11 9 8 8 8 8 8 8 8 8 7 8 6 6 6 7 7 8 9 9 10 10 10 10 10 9 11 11 12 11 10 10 9 7 7 7 6 6 5 7 5 5 7 7 10 12 11 10 8 10 12 11 10 9 8 8 9 10 11 11 9 8 8 8 7 7 6 6 5 5 6 10 6 7
2 3 3 4 6 3 6 4 4 5 3 8 6 8 5 10 14 13 12 11 10 10 10 10 9 9 8 7 7 8 8 7 7 6 5 5 5 6 6 7 7 9 8 10 11 10 10 9 9 10 11 12 11 11 10 9 8 6 5 5 6 4 5 6 5 3 4 10 12 12 12 10 11 12 12 11 9 8 8 6 10 8 9 8 8 9 8 8 7 7 7 6 4 4 9 7 6
3 4 4 4 6 4 3 3 2 4 5 5 3 6 6 10 13 13 12 11 10 10 9 9 9 8 8 7 7 7 7 7 6 4 4 4 5 5 6 6 7 8 9 9 10 10 10 10 10 10 10 11 11 10 9 9 9 7 8 7 6 5 3 6 5 4 6 7 8 10 12 10 10 11 13 11 9 8 8 9 10 10 8 8 9 10 9 8 9 9 9 8 7 7 8 8 8
2 3 5 6 4 5 2 2 2 1 6 2 4 4 5 10 12 13 12 11 9 9 10 9 9 8 7 7 7 7 6 6 5 4 3 4 4 5 5 6 7 8 9 10 10 11 11 11 11 11 10 10 10 10 10 9 9 10 10 8 7 7 6 5 5 7 9 7 11 10 13 12 12 11 10 9 9 9 8 8 8 8 8 9 8 9 10 10 9 8 7 7 8 8 7 9 9
5 5 5 5 3 6 4 1 3 2 7 1 3 4 4 8 11 12 11 12 11 12 11 10 10 8 7 8 7 6 5 5 4 3 2 2 3 4 5 6 7 8 8 9 10 11 11 12 12 11 10 10 10 10 10 9 9 9 10 9 7 6 6 4 6 7 7 6 8 10 10 12 10 11 8 8 8 8 9 8 7 11 9 7 6 8 10 9 9 9 7 6 9 9 8 10 10
3 6 4 6 4 1 3 3 4 2 6 2 4 5 4 7 9 11 11 12 10 10 10 10 10 9 7 7 6 5 5 3 2 2 1 2 3 4 5 6 6 7 8 9 9 11 11 11 11 11 10 11 11 11 10 10 10 10 10 8 6 5 4 5 3 3 5 5 9 9 11 10 11 10 9 8 7 7 7 8 7 7 8 9 7 9 10 9 9 10 10 9 8 7 7 8 10
4 4 5 6 5 6 3 8 3 4 5 3 6 6 4 6 6 9 10 12 10 9 10 10 9 9 9 9 7 7 5 4 4 1 0 1 3 4 5 6 6 6 8 8 9 11 9 11 11 12 10 10 11 11 11 11 11 12 10 8 6 4 4 3 5 4 4 4 6 5 3 8 12 11 9 8 7 7 7 8 7 6 7 9 11 10 10 13 11 10 11 10 9 8 8 8 8
2 4 6 8 4 3 7 2 3 3 2 4 5 5 5 8 9 9 10 8 9 10 10 10 8 7 7 6 7 6 7 5 3 2 1 1 3 4 6 6 7 7 8 8 8 10 9 12 12 12 10 10 10 12 12 11 10 10 10 9 6 4 3 2 2 3 2 7 5 5 3 2 3 8 9 9 7 7 7 7 7 7 6 7 8 9 9 11 12 11 12 10 11 9 9 8 8
3 4 5 7 6 8 4 4 6 6 6 7 5 5 5 7 9 9 10 10 9 12 12 10 9 9 9 8 7 6 5 5 3 2 1 2 2 4 5 6 7 7 8 7 8 9 11 11 11 11 9 9 10 12 12 11 9 9 10 9 9 7 4 4 1 2 4 1 7 8 5 4 2 7 8 8 6 5 4 5 4 4 7 9 9 9 8 10 12 12 12 10 12 11 8 9 8
7 6 3 3 6 6 6 6 6 7 7 5 6 7 2 8 8 9 9 12 14 10 11 8 9 9 9 8 8 6 6 5 3 2 2 2 3 4 5 6 7 8 8 8 8 9 10 11 11 11 10 9 10 11 12 10 10 8 9 9 8 7 8 3 2 1 2 1 2 7 7 6 2 3 5 6 4 5 4 2 3 7 7 9 9 8 10 11 10 12 11 11 11 10 9 7 8
3 5 3 5 6 7 7 8 7 7 5 5 7 6 8 6 7 10 9 10 9 8 9 8 9 9 10 8 7 6 5 5 4 3 2 1 2 4 5 6 7 8 8 8 8 8 10 11 12 12 10 10 10 10 11 10 9 9 9 9 7 7 7 8 6 1 2 3 3 5 6 7 5 2 3 3 3 4 3 4 4 3 4 10 7 7 8 9 9 10 10 10 10 9 10 9 8
6 4 2 4 6 5 6 7 7 4 5 7 8 5 7 6 3 6 7 10 14 13 12 11 13 13 11 9 8 8 6 6 4 3 2 1 2 4 5 6 7 8 8 8 9 9 9 10 11 11 11 10 9 11 10 10 9 9 8 7 8 6 6 6 6 2 2 2 3 1 4 6 8 6 2 3 3 3 2 3 2 2 3 8 7 9 9 9 10 9 7 7 8 8 8 7 7
6 2 4 3 3 6 6 7 7 3 6 8 2 4 5 7 6 5 7 10 11 11 12 13 13 14 10 10 9 8 6 5 4 3 2 0 2 3 4 5 7 7 7 9 9 9 9 9 11 12 12 11 10 10 10 10 10 8 8 8 9 8 7 6 5 5 1 4 3 4 3 3 6 8 6 5 4 3 2 2 2 2 3 6 11 8 8 8 7 6 6 6 7 7 6 8 9
3 4 6 4 5 3 3 4 5 5 6 8 4 3 3 6 1 2 5 4 5 6 5 7 9 9 9 9 9 7 7 6 5 4 3 1 1 2 4 6 7 8 7 9 9 10 10 10 11 12 12 11 11 10 10 10 9 9 7 9 9 8 8 7 7 6 6 3 4 5 4 3 4 6 6 4 4 4 4 4 3 2 3 3 12 7 6 5 4 5 5 4 6 7 6 8 7
5 4 5 4 4 3 5 3 3 5 5 6 1 1 5 7 1 3 3 2 2 2 5 6 7 9 9 9 8 7 5 4 4 4 2 1 1 3 5 6 7 8 8 9 8 9 10 11 11 12 12 12 11 11 10 9 8 8 8 7 8 7 8 6 6 7 7 8 3 3 1 1 2 3 6 5 4 4 4 4 4 5 2 2 9 8 7 9 8 6 5 5 4 5 5 6 7
7 5 5 4 3 2 3 3 4 5 3 4 2 1 5 6 4 3 3 5 5 6 5 4 7 9 9 7 5 3 3 4 3 3 1 1 2 3 5 6 7 8 8 9 9 9 10 10 12 12 13 12 11 11 10 9 8 8 7 7 7 7 6 6 6 5 7 6 6 3 2 3 3 1 5 5 3 3 3 3 2 3 3 4 8 10 5 5 6 6 6 6 5 6 5 5 6
6 6 5 5 4 2 4 4 2 5 5 2 1 2 7 3 1 2 3 2 3 5 5 5 6 8 9 8 5 5 4 4 4 3 2 1 2 3 5 6 7 7 9 9 9 10 10 10 11 12 13 12 10 10 10 9 7 8 7 7 6 6 6 5 4 5 5 5 5 4 2 2 2 0 3 5 5 5 3 2 1 2 3 4 9 11 4 5 5 5 6 6 7 6 5 6 6
4 4 7 5 3 3 5 3 4 4 4 4 1 5 2 5 4 1 4 3 3 4 5 5 6 8 7 6 5 5 4 5 4 2 0 1 1 3 4 5 6 7 9 8 9 11 11 11 11 13 12 11 11 10 9 9 7 7 7 7 6 5 5 5 4 3 4 4 4 4 2 2 2 2 1 2 3 3 4 2 2 2 5 8 8 9 4 4 5 4 4 5 5 5 6 6 6
1 3 4 6 2 3 6 5 6 6 5 4 5 3 3 3 2 3 2 4 4 4 6 7 8 8 6 5 5 5 5 5 4 2 2 1 1 2 4 5 6 7 8 8 10 10 11 11 11 12 12 11 10 10 9 9 8 7 7 7 7 6 5 4 4 3 3 2 2 2 3 3 1 1 1 1 3 3 2 3 3 4 5 4 5 8 7 5 5 5 5 5 6 5 6 8 7
4 6 2 6 4 5 3 3 1 3 6 3 2 5 2 4 7 5 5 5 5 5 7 8 9 8 6 6 5 6 5 5 4 3 1 1 1 2 4 6 7 7 8 8 8 10 11 11 11 12 11 11 11 10 9 8 8 8 8 7 6 6 6 5 5 5 4 3 2 1 1 3 2 1 1 2 3 3 2 0 3 4 4 4 5 8 7 6 5 5 5 6 6 6 7 8 8
6 4 6 2 1 5 3 4 2 4 4 1 3 5 6 4 1 5 7 6 7 7 8 8 9 9 8 6 5 4 3 3 1 1 1 0 1 2 5 5 7 8 8 8 8 10 10 10 11 11 11 11 10 10 9 8 8 8 7 7 7 6 6 6 5 6 4 4 4 3 1 0 3 2 2 3 3 2 1 2 2 3 4 4 3 7 8 5 5 5 5 6 6 6 6 6 7
6 6 3 7 1 4 4 2 3 4 3 3 0 5 5 4 1 5 8 7 8 8 8 9 9 8 8 7 7 6 5 3 3 4 2 2 0 3 4 6 7 8 7 7 8 10 10 10 11 10 11 10 10 9 9 8 8 7 6 7 7 7 6 6 5 5 6 6 5 5 4 1 1 2 2 1 1 1 2 3 3 2 2 3 4 6 5 5 5 5 7 7 6 6 6 7 7
3 4 4 2 5 4 2 2 5 3 5 3 1 4 1 4 4 2 2 7 7 8 8 9 8 8 7 6 5 6 6 4 4 4 3 1 1 3 5 6 7 8 8 7 8 9 10 10 11 11 10 10 10 9 8 8 7 7 7 8 8 7 6 6 6 6 6 6 6 6 6 5 2 2 2 2 2 2 2 3 2 2 3 4 4 5 5 5 5 6 6 7 7 7 8 8 8
3 4 2 3 2 2 4 2 3 4 5 3 4 4 2 6 6 5 2 2 6 7 7 7 8 7 7 5 3 2 1 2 3 2 2 1 1 2 4 5 6 7 7 7 8 10 10 10 11 12 11 10 10 9 8 7 7 7 8 8 8 8 7 6 6 6 6 6 6 6 6 6 5 4 3 4 5 5 4 4 4 3 4 4 4 5 5 4 5 7 7 7 7 8 9 8 8
5 5 2 5 3 2 4 1 4 2 3 4 5 5 3 7 4 4 3 2 3 5 7 6 7 7 6 4 4 3 2 2 3 3 2 1 1 3 4 5 6 7 7 9 9 9 10 10 11 11 11 10 10 9 8 7 7 6 7 7 8 7 7 6 6 5 6 6 5 5 5 6 7 6 5 5 7 7 5 6 6 5 4 3 3 4 4 6 6 6 7 6 6 8 9 9 9
Wind_Direction
263 239 315 250 243 228 188 206 211 181 229 226 225 191 98 25 13 211 189 177 227 90 355 323 302 261 257 2 74 65 38 24 45 307 56 105 111 127 133 147 156 155 153 148 141 144 145 130 125 123 125 130 122 107 103 112 109 103 114 122 122 124 124 125 128 131 133 135 138 137 139 141 137 134 134 132 130 129 127 126 126 127 128 129 129 128 127 125 122 119 118 117 116 113 111 108 105
272 286 224 224 223 195 188 188 260 168 221 234 195 194 89 108 218 199 350 310 357 340 351 148 91 91 220 100 121 124 62 51 34 60 77 81 294 98 132 134 153 149 148 142 141 152 145 131 114 115 119 118 124 111 99 102 97 114 119 120 122 122 122 118 125 129 131 133 135 138 139 141 136 135 135 132 131 128 130 129 129 127 126 130 129 131 128 124 122 121 120 118 116 114 112 108 106
307 252 176 207 196 240 93 213 234 196 205 219 136 134 112 179 184 128 343 345 342 1 153 122 111 118 148 179 69 29 80 46 61 91 107 173 171 128 128 156 149 144 147 143 146 154 142 124 104 107 113 119 107 97 107 103 97 108 115 121 122 122 118 119 124 127 129 130 134 137 137 139 140 139 135 134 132 130 130 131 130 129 130 131 132 131 129 126 124 123 120 118 116 115 112 109 106
280 260 241 190 170 230 189 200 265 235 215 112 121 124 162 74 87 358 5 2 32 141 150 150 135 332 188 80 104 89 69 71 32 31 87 116 357 131 151 152 145 149 155 149 156 144 138 115 93 94 101 108 109 111 112 119 117 115 124 127 127 123 122 124 128 129 129 133 138 137 138 139 139 139 140 139 136 134 132 133 132 131 131 131 133 133 131 127 127 125 121 119 118 116 112 110 106
245 187 254 229 229 191 213 212 247 247 237 161 103 120 123 153 58 4 32 56 127 152 153 115 123 72 66 85 71 114 28 82 37 28 11 22 20 104 153 153 148 147 145 142 137 110 87 85 77 74 84 101 105 108 111 119 127 125 127 129 126 123 123 126 131 133 136 136 140 140 139 140 142 143 145 141 138 135 132 132 131 131 133 134 136 135 131 129 127 127 126 123 120 118 116 113 111
212 197 199 253 258 19 257 194 205 222 39 350 122 86 89 93 14 24 97 134 134 117 118 152 126 161 105 61 41 71 358 58 5 22 13 32 315 69 92 97 161 103 51 46 38 30 61 49 43 47 50 60 81 82 87 96 118 126 126 128 128 124 126 133 134 138 139 142 144 142 145 143 142 146 146 143 137 134 134 132 131 134 135 137 135 132 131 131 131 131 129 127 124 123 122 119 117
174 181 175 194 165 226 234 221 175 184 82 335 9 42 53 70 65 148 138 129 105 113 160 105 101 127 113 108 90 66 44 14 8 15 38 26 22 15 30 1 14 50 36 41 56 55 48 47 43 40 35 33 25 25 24 20 27 40 64 122 127 131 134 139 138 142 145 147 147 148 147 143 143 148 148 141 136 135 135 135 134 136 136 135 134 132 132 133 132 130 131 129 127 128 129 128 124
274 251 160 210 149 212 209 157 114 334 86 348 15 323 10 18 128 183 145 153 140 139 120 133 144 61 71 156 97 70 45 29 57 37 47 50 46 73 82 84 74 57 91 108 120 95 82 93 79 75 77 73 73 63 35 20 18 6 7 0 90 126 137 140 141 142 146 146 147 145 144 138 135 142 141 140 137 137 139 139 137 133 132 134 133 131 134 132 131 131 126 129 130 133 140 140 137
194 246 151 249 176 216 178 156 88 69 95 78 83 45 358 52 167 157 140 109 120 113 133 131 125 116 96 99 84 76 49 24 40 47 43 52 59 57 88 110 89 73 56 64 60 57 65 70 80 86 83 73 77 93 89 80 63 27 12 353 340 97 133 138 139 140 141 140 139 133 122 128 138 138 149 141 140 142 142 139 136 136 138 133 129 132 126 126 125 120 124 129 137 143 144 149 143
173 244 172 250 152 183 158 150 164 80 70 70 55 57 58 136 165 161 137 141 116 110 82 129 80 97 109 101 104 56 36 32 40 41 49 57 54 59 60 70 65 72 67 71 81 80 82 88 94 98 96 94 88 96 100 103 110 102 97 27 340 344 355 139 134 132 135 135 129 128 133 136 142 145 147 145 144 144 140 138 137 140 138 133 130 123 120 116 115 121 126 131 139 141 148 148 142
173 202 303 206 200 162 172 119 118 140 101 102 89 74 94 154 155 132 132 111 126 110 92 102 118 130 142 88 78 87 57 47 38 30 50 62 54 58 55 62 61 65 79 81 87 93 98 97 92 104 123 133 140 133 121 107 105 120 133 137 77 353 337 317 175 137 134 128 133 141 148 146 145 143 143 142 144 143 139 138 141 140 138 136 126 122 120 116 117 122 123 129 128 134 136 139 133
183 193 186 207 184 163 116 118 107 110 109 104 89 81 62 129 135 134 134 137 124 98 68 325 117 122 93 100 86 68 59 47 38 31 60 64 60 59 70 77 83 78 74 82 84 80 81 88 102 102 126 131 131 133 123 121 132 133 129 108 75 71 349 312 297 171 137 140 149 154 154 150 149 140 137 142 147 141 140 142 143 144 141 135 128 123 122 118 119 120 123 122 121 122 119 120 125
255 181 207 202 108 126 113 126 103 110 107 71 84 69 74 97 80 100 114 114 123 118 65 34 130 111 108 99 80 75 47 46 50 55 61 65 66 70 76 75 75 77 75 73 70 69 73 81 87 95 112 138 131 133 130 138 145 143 131 115 90 68 20 318 292 247 153 147 156 159 155 150 142 134 136 143 150 145 143 145 148 147 142 136 131 126 121 119 121 123 122 123 124 122 118 122 125
257 217 217 122 180 133 158 112 145 120 86 92 75 92 57 84 51 38 126 93 63 58 46 9 19 84 97 132 86 53 37 40 54 73 72 69 67 68 75 81 76 71 67 67 71 73 73 78 80 89 89 108 144 147 153 160 150 152 143 135 127 112 102 281 270 240 184 159 160 158 154 148 141 138 139 147 149 147 146 151 151 147 145 138 133 128 125 124 124 126 125 127 129 128 126 127 126
258 192 161 141 144 140 122 168 131 115 93 97 75 102 96 61 36 54 37 104 69 24 13 44 5 209 133 228 112 35 34 45 50 77 83 85 80 77 76 76 77 73 67 63 64 67 71 76 88 89 97 113 169 193 191 185 163 148 145 144 146 151 161 238 238 236 209 178 164 163 161 154 147 145 149 156 160 153 150 148 148 148 146 141 133 128 130 124 127 129 131 130 134 133 131 128 128
115 225 163 158 151 142 123 110 120 115 103 105 90 90 92 74 42 77 38 41 98 51 17 62 34 37 79 72 62 48 42 50 51 63 64 72 72 73 70 71 73 73 68 63 63 62 64 68 79 88 84 161 138 272 225 262 353 183 156 154 151 153 158 190 215 230 213 191 179 169 166 165 162 159 160 164 159 153 153 156 148 146 144 140 133 132 134 129 129 138 138 137 137 137 131 130 129
219 257 173 144 130 147 133 138 178 105 113 114 143 180 107 87 72 76 70 88 93 65 67 46 62 56 62 60 60 47 48 50 50 52 57 52 50 60 60 54 59 70 74 65 62 66 58 55 59 73 65 353 330 252 217 239 312 257 212 162 152 156 166 172 182 200 212 196 186 178 176 185 169 162 173 168 158 159 157 146 148 145 143 138 136 138 141 136 135 144 145 141 139 137 133 131 130
228 203 156 145 114 119 128 96 66 116 121 113 109 96 116 111 116 100 116 92 87 91 80 90 81 73 69 69 56 61 58 54 53 55 51 51 44 44 47 46 40 40 42 59 62 59 60 55 59 61 47 6 36 352 27 228 258 203 168 282 164 157 161 166 175 187 209 200 199 182 188 184 178 173 178 165 168 153 153 151 148 147 142 139 139 144 147 141 138 144 151 144 142 140 145 146 137
226 139 155 110 109 83 85 94 108 138 102 103 103 110 101 96 132 142 161 119 124 105 98 105 93 87 81 72 62 63 63 60 56 55 52 47 45 43 38 34 30 25 28 36 51 50 49 50 43 47 46 24 350 103 154 172 183 210 145 162 193 166 163 171 186 182 191 204 198 194 187 189 184 176 174 174 166 159 147 154 150 146 146 141 145 148 152 140 136 144 149 155 148 161 181 143 148
82 264 120 102 97 108 88 88 82 75 119 119 118 100 104 110 126 180 138 125 129 113 117 112 89 77 67 63 62 60 58 57 53 52 52 50 48 48 46 40 36 31 25 26 33 39 39 37 37 33 37 37 16 47 154 174 155 116 188 181 187 188 176 176 189 190 181 198 212 207 195 182 187 176 162 158 149 158 148 159 153 146 145 151 147 158 149 138 132 138 149 152 177 182 196 144 144
140 223 126 121 130 125 97 93 90 98 88 114 116 123 117 122 130 170 132 128 102 90 46 71 76 70 70 67 61 57 58 58 58 58 58 58 56 54 50 46 35 28 21 24 28 31 24 28 17 22 31 42 37 338 283 215 181 170 190 217 201 193 187 183 187 197 184 166 177 265 206 189 180 178 166 164 172 159 160 169 167 169 170 167 180 176 181 152 174 164 161 183 188 189 147 143 134
142 55 82 112 135 101 104 91 95 98 88 114 140 140 109 115 94 92 204 178 109 82 77 67 65 59 53 56 57 60 59 62 61 61 61 59 55 53 48 45 42 34 23 24 21 26 26 17 19 5 9 46 39 31 306 290 219 211 197 201 215 212 205 194 189 191 195 170 184 212 244 191 183 178 170 169 171 167 169 179 181 176 174 171 188 180 180 168 189 169 175 187 189 156 142 131 129
134 122 115 100 41 99 109 112 96 167 148 133 125 106 131 134 93 58 64 80 90 82 82 74 70 70 71 64 66 65 64 63 61 59 56 54 51 48 45 40 33 29 22 17 15 15 22 13 12 1 359 349 91 67 17 302 272 243 230 211 212 208 207 210 202 197 193 186 176 195 255 211 190 179 174 172 178 177 180 182 182 176 174 172 180 182 173 174 179 162 169 178 165 171 155 142 146
180 125 134 110 73 72 80 96 133 128 130 102 107 145 141 141 106 84 85 83 90 91 87 88 87 88 86 79 69 67 66 64 62 61 60 59 54 49 46 44 38 32 26 10 12 12 14 8 4 0 358 352 9 74 153 244 270 271 241 229 221 217 213 215 215 204 205 197 175 176 179 247 193 185 178 176 176 175 191 185 184 173 177 173 176 181 177 171 180 165 167 172 177 181 166 159 153
124 129 142 116 113 92 110 115 127 107 106 118 139 135 126 113 111 111 94 99 102 103 103 102 101 93 85 80 76 72 69 67 67 66 65 61 59 55 49 48 42 34 28 16 3 9 11 4 1 358 353 355 356 343 207 196 226 244 254 238 227 212 222 227 228 235 210 201 185 174 175 251 249 190 183 181 177 171 203 193 182 177 176 172 176 182 181 167 166 168 158 200 178 181 176 162 159
73 105 136 136 112 117 125 128 127 130 123 139 129 118 113 109 109 93 108 109 111 112 111 108 104 96 87 81 77 75 69 64 64 61 60 64 55 51 45 41 40 38 30 19 11 9 12 3 1 2 358 352 346 333 340 222 226 232 233 242 236 222 224 231 217 222 219 207 194 184 191 181 230 232 185 185 180 178 189 191 183 176 179 169 182 182 177 171 171 155 181 218 163 174 172 152 163
126 130 124 129 122 123 148 148 127 134 135 150 137 135 130 137 180 120 116 122 126 123 116 115 107 98 92 87 80 71 69 65 59 59 60 55 55 48 45 42 38 38 31 23 18 11 9 7 2 1 0 355 341 331 327 273 213 242 240 235 226 222 220 232 242 224 213 210 202 186 176 177 177 235 196 189 183 176 183 178 188 167 177 174 188 179 178 174 172 150 208 203 147 155 144 149 173
125 130 131 129 129 125 129 140 142 152 144 194 146 137 147 152 227 138 138 139 139 129 125 121 110 100 93 86 80 73 68 64 64 59 55 52 47 48 42 35 34 38 34 27 21 12 7 8 1 3 360 359 350 339 345 314 267 223 229 237 230 230 212 249 303 277 228 213 211 206 185 172 213 218 202 187 188 174 186 195 179 182 181 177 191 180 177 176 173 157 146 169 121 130 139 155 152
157 178 165 141 147 126 146 152 160 203 133 185 152 146 156 179 115 125 137 143 145 135 126 119 110 102 95 89 82 73 69 67 62 59 58 58 56 53 52 39 30 35 42 33 21 18 11 5 1 1 358 2 358 349 339 327 300 261 243 238 227 222 230 203 223 236 251 228 205 206 214 195 207 222 197 198 192 175 185 190 185 183 181 180 186 186 178 176 169 146 161 128 138 127 136 143 151
172 218 265 177 195 142 121 146 162 186 137 174 187 199 150 117 125 136 144 148 146 141 132 123 112 106 99 93 86 80 76 73 65 61 58 60 62 56 55 48 40 36 38 33 26 21 13 5 357 358 357 357 360 355 341 334 325 296 261 263 258 241 230 215 219 211 235 257 224 211 214 206 211 231 200 199 202 185 184 195 191 183 177 177 171 178 181 191 174 165 149 151 134 140 145 141 137
202 136 250 211 220 119 127 161 165 189 143 196 223 233 135 137 141 147 152 155 158 146 135 123 115 105 99 91 90 88 79 70 71 69 64 63 62 59 55 49 44 37 33 31 25 18 15 9 0 357 356 354 355 356 349 335 335 314 280 251 230 228 247 240 215 197 207 220 230 216 211 204 201 213 215 201 203 197 186 196 191 183 174 175 173 180 192 187 175 174 171 153 150 133 139 145 142
168 206 197 120 272 118 117 153 181 241 160 215 216 236 206 154 150 154 160 164 161 146 137 128 120 115 108 102 95 88 81 78 75 70 68 63 53 56 50 47 40 37 32 27 21 15 14 9 4 0 356 354 353 352 350 335 332 322 283 256 240 230 244 237 210 221 232 214 220 214 217 203 205 207 213 206 202 200 199 183 190 191 181 176 175 171 198 186 177 179 177 162 147 156 109 122 138
185 256 197 198 268 127 164 142 151 12 176 195 235 264 144 163 157 161 168 167 165 150 139 129 124 121 116 108 103 98 94 87 78 69 58 62 57 49 51 43 41 35 32 26 21 15 13 7 5 2 357 353 348 349 343 338 336 326 316 298 267 237 223 219 207 215 214 206 199 194 207 214 204 205 206 209 208 204 200 190 188 192 177 180 171 172 189 189 170 178 180 182 167 151 143 149 138
204 274 275 111 266 159 198 132 125 178 233 226 230 254 238 154 165 164 169 174 167 156 144 138 132 117 115 111 105 99 96 89 78 70 63 54 59 51 47 46 38 35 31 26 23 16 11 6 3 3 357 352 347 343 341 332 337 326 312 311 298 264 249 216 205 214 228 213 191 195 185 214 214 205 205 206 208 206 193 198 200 175 192 176 172 177 185 186 180 180 177 174 178 174 123 171 143
252 201 249 183 225 278 311 248 103 259 217 260 215 247 216 153 164 169 170 174 174 158 151 143 132 130 126 116 104 96 94 87 83 72 62 62 58 51 45 39 40 33 30 27 23 21 13 10 5 3 359 355 349 343 340 332 327 331 300 297 296 267 242 215 200 213 282 231 191 185 176 205 212 207 200 202 202 200 197 187 213 180 191 179 174 178 182 187 179 184 182 161 158 151 120 145 156
286 272 278 303 287 188 214 96 108 288 256 249 248 256 205 167 167 168 171 174 179 159 145 142 139 136 132 124 115 111 104 97 85 78 83 65 49 40 41 38 38 35 29 24 22 18 15 12 8 5 3 356 352 348 344 344 334 334 335 329 322 310 265 224 198 188 231 237 191 174 187 197 222 208 201 199 199 193 199 192 187 182 183 188 179 181 183 184 181 183 193 154 171 133 136 148 159
328 251 274 271 305 278 72 212 99 243 270 284 296 271 200 182 173 170 170 172 168 157 161 156 151 148 143 133 119 109 96 99 95 92 71 64 45 40 39 40 31 34 28 22 17 16 14 10 6 6 2 358 358 353 348 342 342 332 336 337 331 316 284 220 198 213 203 212 194 182 186 191 207 212 201 199 199 200 191 203 188 185 182 195 185 186 187 180 182 188 187 176 146 147 165 160 154
296 298 282 265 205 285 92 94 169 193 272 206 247 230 195 173 170 170 170 175 174 175 172 168 158 151 144 136 132 122 123 109 123 126 103 66 51 43 44 37 28 23 21 17 14 13 8 8 7 2 4 357 2 356 345 340 340 333 325 329 325 317 316 249 206 224 216 209 193 184 185 198 194 209 210 207 206 204 195 193 184 187 188 185 193 190 185 175 177 189 181 175 169 170 166 160 157
228 285 301 286 263 324 152 173 186 211 254 265 235 228 173 159 176 175 179 187 179 183 180 174 161 154 155 141 125 128 120 110 114 125 91 73 51 38 41 33 28 21 10 14 8 5 5 5 3 0 2 359 360 359 348 343 335 331 329 327 327 327 337 322 244 213 184 171 191 194 192 190 198 219 210 205 215 215 203 198 198 189 185 178 192 189 180 170 178 189 188 187 181 162 158 162 163
278 265 253 271 31 305 247 164 180 193 253 256 230 242 157 166 175 185 192 192 185 182 181 174 170 166 164 158 153 144 152 159 189 153 61 34 29 36 30 30 25 13 9 7 4 4 1 2 358 357 359 359 0 359 351 340 336 330 334 331 332 354 347 23 54 110 103 140 145 96 63 193 193 206 202 197 205 215 212 203 196 201 196 184 191 191 186 186 183 188 192 193 186 174 170 171 177
151 302 303 287 312 271 280 47 210 170 200 253 221 240 209 186 186 185 188 189 181 181 178 179 178 175 160 150 154 166 155 170 200 176 192 348 17 26 26 27 17 11 6 0 1 0 357 356 355 354 356 359 1 358 355 344 342 342 342 346 346 343 10 43 53 25 121 125 110 122 126 40 222 192 195 199 201 209 215 210 203 202 197 212 197 188 187 194 183 191 194 192 189 188 179 169 181
292 147 324 329 324 288 240 234 234 225 220 212 227 257 238 196 200 200 175 188 187 187 187 183 179 179 164 174 172 167 180 177 189 170 295 329 2 13 25 16 15 8 360 358 357 355 353 353 351 353 356 355 4 359 356 351 349 347 347 352 356 350 1 2 342 48 350 46 143 141 131 126 199 211 198 190 184 195 208 217 195 244 221 213 190 200 193 194 193 197 195 197 194 198 190 175 179
275 82 329 319 293 289 279 242 240 250 282 127 215 269 295 153 203 197 192 195 202 195 206 190 194 194 183 184 177 182 188 168 179 199 238 284 0 9 12 15 6 6 354 353 354 351 350 351 350 352 355 352 3 358 356 357 351 350 350 348 2 355 341 340 2 114 136 9 110 136 131 123 171 194 176 165 130 123 122 113 206 231 238 213 207 194 189 191 195 199 195 195 202 195 184 185 188
2 45 20 270 265 254 255 263 241 281 67 174 224 251 276 250 203 189 192 219 186 201 155 185 243 222 191 183 182 175 186 174 185 199 220 293 11 9 7 6 6 2 355 352 347 351 347 349 350 351 353 352 1 357 355 0 353 353 346 348 357 358 352 339 316 199 87 38 359 155 140 131 124 257 152 120 108 127 125 135 185 164 238 263 183 200 184 185 193 200 200 197 206 202 185 196 185
23 17 305 282 279 283 274 255 258 281 290 256 204 221 258 267 110 160 190 221 206 187 196 202 200 215 192 186 186 178 190 177 198 199 210 319 8 10 5 4 5 2 357 350 347 346 344 343 347 349 350 351 357 354 353 357 354 351 352 347 345 357 0 352 335 342 146 103 288 337 147 140 135 167 187 114 126 136 112 155 151 112 160 256 260 208 191 181 190 188 180 196 202 203 188 198 166
77 330 248 251 245 252 256 256 254 249 258 270 289 180 274 284 160 205 198 236 229 217 197 212 216 224 195 184 181 179 174 179 187 213 216 161 8 10 3 4 4 4 357 348 346 343 343 342 346 349 347 347 354 350 349 351 351 352 352 354 344 352 354 356 359 355 88 179 170 322 157 185 163 144 141 130 136 156 178 200 169 141 189 226 245 212 184 165 171 171 172 187 196 197 187 215 188
326 226 244 214 227 237 219 257 289 274 245 257 116 92 293 282 312 242 206 237 259 229 190 188 195 192 186 179 179 173 179 178 189 191 205 170 97 357 6 6 357 358 356 352 349 347 347 344 347 347 345 347 345 345 346 345 344 351 351 348 353 347 352 356 358 8 351 191 150 234 242 203 195 129 119 118 140 175 189 201 208 199 233 232 270 220 173 136 165 169 164 175 194 203 211 208 208
236 246 294 274 219 229 230 223 228 254 259 89 279 158 208 263 153 227 82 80 222 246 214 182 188 176 180 172 181 176 166 185 179 218 193 93 321 4 6 358 353 353 353 353 351 348 348 344 345 343 342 345 341 339 342 341 341 344 344 344 346 349 350 354 7 2 354 356 117 164 24 186 170 131 124 130 151 175 183 189 200 216 237 238 265 253 184 178 182 178 170 179 189 206 211 217 220
231 250 240 274 280 239 270 209 230 224 291 72 57 253 253 235 294 48 172 219 204 222 242 211 189 186 165 161 148 145 169 215 205 233 279 297 348 3 359 348 349 353 352 351 349 346 347 345 343 341 339 341 341 339 336 338 338 339 339 340 343 342 345 350 359 9 1 1 349 44 89 12 63 98 129 130 155 165 183 170 181 210 230 230 252 259 194 168 164 168 175 187 192 198 210 212 217
334 324 339 284 294 299 290 284 340 295 119 53 338 8 260 315 146 54 313 196 203 192 217 220 185 159 161 152 185 187 191 209 227 231 260 345 2 4 351 345 351 351 350 349 346 346 349 344 344 344 343 347 349 341 336 336 336 338 338 336 336 332 338 344 352 4 11 2 356 6 44 69 144 214 153 141 139 153 132 133 175 216 219 234 240 252 222 171 167 181 175 191 198 199 208 212 222
5 342 294 322 311 316 287 284 287 339 346 120 119 247 2 300 70 331 65 85 167 171 193 166 148 157 159 167 176 196 209 212 224 233 165 321 37 0 346 348 351 351 348 346 344 346 346 342 342 342 344 347 343 341 336 337 337 336 337 337 333 330 328 329 334 356 13 4 4 351 11 56 67 56 346 68 111 108 117 141 125 234 242 228 235 244 227 190 174 193 183 191 199 200 201 207 219
175 335 274 258 2 356 286 10 320 329 322 274 150 291 2 329 135 125 141 131 155 166 167 166 165 165 167 176 188 213 215 222 227 210 202 136 17 350 344 354 353 352 345 344 344 346 343 344 342 341 339 340 340 339 336 334 332 330 330 332 332 330 316 315 312 330 336 354 2 5 7 3 8 60 2 48 76 78 120 142 146 205 233 240 250 245 232 211 189 198 199 196 204 197 204 209 214
46 251 310 19 358 284 281 198 10 248 247 260 28 276 253 167 174 156 167 161 160 169 168 177 169 172 184 204 209 216 222 218 204 221 190 132 305 340 354 359 353 349 344 346 345 346 343 343 341 341 340 338 339 337 332 327 326 328 328 326 326 324 315 308 308 311 315 319 308 359 27 335 345 5 21 15 32 46 24 130 189 217 230 240 233 239 235 220 205 209 210 202 206 203 209 210 214
284 285 46 37 302 314 280 311 155 237 275 9 303 310 309 303 109 165 171 199 174 181 180 187 179 186 203 216 213 219 242 263 225 240 185 184 308 354 358 3 349 346 345 341 345 344 343 345 343 337 342 341 337 333 332 328 324 325 322 323 324 321 313 310 296 291 294 297 295 276 183 328 319 348 22 17 19 15 349 300 242 226 221 240 256 250 241 223 211 215 222 219 210 205 211 217 216
1 15 35 276 220 204 156 258 293 313 310 319 157 317 277 295 60 185 187 204 189 193 195 196 200 202 209 198 199 207 215 214 215 220 219 221 357 352 13 355 341 346 345 342 343 343 345 348 344 341 341 339 338 336 334 329 328 326 323 322 319 314 312 307 299 291 289 281 275 277 278 258 201 314 331 18 34 355 315 254 245 256 248 242 240 237 251 232 218 222 226 229 219 207 211 219 222
114 170 169 37 267 342 308 14 322 290 299 283 126 266 350 76 27 330 235 191 197 195 200 207 204 200 204 209 200 196 195 209 225 218 219 145 359 6 1 348 340 347 346 349 342 344 344 345 343 342 340 338 338 337 337 332 337 330 330 325 317 316 311 305 300 298 292 279 276 271 268 265 232 209 241 233 247 212 226 274 252 234 236 243 240 242 241 237 224 230 231 228 222 214 217 217 220
189 224 331 149 43 354 291 246 326 333 323 320 334 313 55 55 15 356 343 229 199 204 211 208 205 203 201 200 200 213 202 202 222 221 192 168 344 3 355 341 342 344 348 350 340 347 342 343 341 343 342 337 336 337 336 334 331 330 327 324 323 319 314 301 298 295 287 283 274 270 265 266 254 242 218 240 231 218 209 221 257 242 238 228 242 241 238 242 226 225 226 233 230 223 221 222 222
321 330 343 341 325 270 277 124 148 300 288 342 303 314 326 80 35 9 351 335 248 216 221 215 201 201 199 196 206 217 213 187 203 189 215 268 345 348 342 335 342 345 351 347 346 341 345 342 340 342 339 339 335 333 332 331 334 332 327 325 321 316 306 306 300 291 282 283 283 275 270 258 258 250 234 239 247 236 213 208 221 235 236 234 229 237 238 237 239 234 228 226 237 232 230 228 222